Weather History for Whiteville, NC

Change the Weather History Date:

Wednesday, October 17, 2012

  Actual Average (KLBT) Record (KLBT)
Temperature  
Mean Temperature 57 °F 63 °F  
Max Temperature 68 °F 75 °F 86 °F (2007)
Min Temperature 46 °F 51 °F 36 °F (2001)
Degree Days  
Heating Degree Days 8 4  
Month to date heating degree days 41  
Since 1 July heating degree days 50  
Cooling Degree Days 0 2  
Month to date cooling degree days 51  
Year to date cooling degree days 1872  
Growing Degree Days 7 (Base 50)    
Moisture  
Dew Point 50 °F    
Average Humidity 83    
Maximum Humidity 100    
Minimum Humidity 46    
Precipitation  
Precipitation 0.00 in 0.07 in 3.61 in (1999)
Month to date precipitation 1.73  
Year to date precipitation 36.92  
Sea Level Pressure  
Sea Level Pressure 29.96 in    
Wind  
Wind Speed 0 mph (ESE)    
Max Wind Speed 6 mph    
Max Gust Speed -    
Visibility 9 miles    
Events      
T = Trace of Precipitation, MM = Missing Value Source: NWS Daily Summary

Daily Weather History Graph

Daily Weather History Graph

Search for Another Location

Airport:

Trip Planner

Search our weather history database for the weather conditions in past years. The results will help you decide how hot, cold, wet, or windy it might be!

Date:

Astronomy

Oct. 17, 2012 Rise Set
Actual Time 7:22 AM EDT 6:37 PM EDT
Civil Twilight 6:56 AM EDT 7:02 PM EDT
Nautical Twilight 6:27 AM EDT 7:31 PM EDT
Astronomical Twilight 5:58 AM EDT 8:01 PM EDT
Moon 9:46 AM EDT (10/17) 8:20 PM EDT (10/17)
Length of Visible Light 12h 05m
Length of Day
11h 15m
Waxing Crescent, 7% of the Moon is Illuminated
Oct 17
Waxing Crescent
Oct 21
First Quarter
Oct 29
Full
Nov 6
Last Quarter
Nov 13
New

Hourly Weather History & Observations

Time (EDT) Temp. Dew Point Humidity Pressure Visibility Wind Dir Wind Speed Gust Speed Precip Events Conditions
12:15 AM 50.0 °F 50.0 °F 100% 29.93 in 10.0 mi Calm Calm - N/A   Clear
12:35 AM 50.0 °F 50.0 °F 100% 29.93 in 10.0 mi Calm Calm - N/A   Clear
12:55 AM 50.0 °F 48.2 °F 94% 29.93 in 7.0 mi Calm Calm - N/A   Clear
1:15 AM 50.0 °F 48.2 °F 94% 29.93 in 7.0 mi Calm Calm - N/A   Clear
1:35 AM 50.0 °F 50.0 °F 100% 29.93 in 10.0 mi Calm Calm - N/A   Clear
1:55 AM 50.0 °F 48.2 °F 94% 29.94 in 7.0 mi Calm Calm - N/A   Clear
2:15 AM 48.2 °F 46.4 °F 93% 29.93 in 7.0 mi Calm Calm - N/A   Clear
2:35 AM 48.2 °F 48.2 °F 100% 29.93 in 7.0 mi Calm Calm - N/A   Clear
2:55 AM 50.0 °F 48.2 °F 94% 29.93 in 10.0 mi Calm Calm - N/A   Clear
3:15 AM 50.0 °F 50.0 °F 100% 29.93 in 10.0 mi Calm Calm - N/A   Clear
3:35 AM 48.2 °F 46.4 °F 93% 29.93 in 5.0 mi Calm Calm - N/A   Clear
3:55 AM 46.4 °F 46.4 °F 100% 29.94 in 7.0 mi Calm Calm - N/A   Clear
4:15 AM 48.2 °F 46.4 °F 93% 29.94 in 7.0 mi Calm Calm - N/A   Clear
4:35 AM 46.4 °F 46.4 °F 100% 29.94 in 7.0 mi Calm Calm - N/A   Clear
4:55 AM 48.2 °F 46.4 °F 93% 29.95 in 10.0 mi Calm Calm - N/A   Clear
5:15 AM 46.4 °F 46.4 °F 100% 29.95 in 7.0 mi Calm Calm - N/A   Clear
5:35 AM 46.4 °F 46.4 °F 100% 29.95 in 5.0 mi Calm Calm - N/A   Clear
5:55 AM 46.4 °F 46.4 °F 100% 29.95 in 7.0 mi Calm Calm - N/A   Clear
6:15 AM 46.4 °F 46.4 °F 100% 29.95 in 10.0 mi Calm Calm - N/A   Clear
6:35 AM 46.4 °F 46.4 °F 100% 29.95 in 7.0 mi Calm Calm - N/A   Clear
6:55 AM 48.2 °F 48.2 °F 100% 29.97 in 10.0 mi Calm Calm - N/A   Clear
7:15 AM 50.0 °F 48.2 °F 94% 29.97 in 10.0 mi Calm Calm - N/A   Clear
7:35 AM 48.2 °F 48.2 °F 100% 29.97 in 10.0 mi Calm Calm - N/A   Clear
7:55 AM 50.0 °F 48.2 °F 94% 29.98 in 10.0 mi Calm Calm - N/A   Clear
8:15 AM 50.0 °F 50.0 °F 100% 29.98 in 10.0 mi Calm Calm - N/A   Clear
8:35 AM 50.0 °F 50.0 °F 100% 29.99 in 10.0 mi Calm Calm - N/A   Clear
8:55 AM 51.8 °F 51.8 °F 100% 30.00 in 10.0 mi Calm Calm - N/A   Clear
9:15 AM 53.6 °F 51.8 °F 94% 30.00 in 10.0 mi Calm Calm - N/A   Clear
9:35 AM 55.4 °F 53.6 °F 94% 30.00 in 10.0 mi Calm Calm - N/A   Clear
9:55 AM 57.2 °F 53.6 °F 88% 30.02 in 10.0 mi Calm Calm - N/A   Clear
10:15 AM 59.0 °F 53.6 °F 82% 30.02 in 10.0 mi Calm Calm - N/A   Clear
10:35 AM 60.8 °F 55.4 °F 82% 30.00 in 10.0 mi Calm Calm - N/A   Clear
10:55 AM 62.6 °F 53.6 °F 72% 30.01 in 10.0 mi Calm Calm - N/A   Clear
11:15 AM 62.6 °F 53.6 °F 72% 30.02 in 10.0 mi Calm Calm - N/A   Clear
11:35 AM 62.6 °F 51.8 °F 68% 30.02 in 10.0 mi Calm Calm - N/A   Clear
11:55 AM 64.4 °F 51.8 °F 64% 30.00 in 10.0 mi Calm Calm - N/A   Clear
12:15 PM 64.4 °F 51.8 °F 64% 30.00 in 10.0 mi Calm Calm - N/A   Clear
12:35 PM 64.4 °F 51.8 °F 64% 30.00 in 10.0 mi Calm Calm - N/A   Clear
12:55 PM 64.4 °F 51.8 °F 64% 30.00 in 10.0 mi Calm Calm - N/A   Clear
1:15 PM 66.2 °F 46.4 °F 49% 29.99 in 10.0 mi East 3.5 mph - N/A   Clear
1:35 PM 68.0 °F 48.2 °F 49% 29.98 in 10.0 mi Calm Calm - N/A   Clear
1:55 PM 66.2 °F 50.0 °F 56% 29.98 in 10.0 mi Calm Calm - N/A   Clear
2:15 PM 68.0 °F 48.2 °F 49% 29.97 in 10.0 mi Calm Calm - N/A   Clear
2:35 PM 68.0 °F 46.4 °F 46% 29.96 in 10.0 mi Calm Calm - N/A   Clear
2:55 PM 68.0 °F 48.2 °F 49% 29.96 in 10.0 mi ENE 3.5 mph - N/A   Clear
3:15 PM 68.0 °F 46.4 °F 46% 29.96 in 10.0 mi Calm Calm - N/A   Clear
3:35 PM 68.0 °F 46.4 °F 46% 29.96 in 10.0 mi ESE 3.5 mph - N/A   Clear
3:55 PM 68.0 °F 46.4 °F 46% 29.96 in 10.0 mi SE 3.5 mph - N/A   Clear
4:15 PM 68.0 °F 46.4 °F 46% 29.95 in 10.0 mi Calm Calm - N/A   Clear
4:35 PM 68.0 °F 46.4 °F 46% 29.95 in 10.0 mi ESE 3.5 mph - N/A   Clear
4:55 PM 68.0 °F 46.4 °F 46% 29.94 in 10.0 mi ESE 5.8 mph - N/A   Clear
5:15 PM 68.0 °F 48.2 °F 49% 29.94 in 10.0 mi Calm Calm - N/A   Clear
5:35 PM 64.4 °F 53.6 °F 68% 29.94 in 10.0 mi Calm Calm - N/A   Clear
5:55 PM 68.0 °F 51.8 °F 56% 29.94 in 10.0 mi East 3.5 mph - N/A   Clear
6:15 PM 62.6 °F 53.6 °F 72% 29.94 in 10.0 mi Calm Calm - N/A   Clear
6:35 PM 60.8 °F 53.6 °F 77% 29.95 in 10.0 mi Calm Calm - N/A   Clear
6:55 PM 59.0 °F 53.6 °F 82% 29.95 in 10.0 mi Calm Calm - N/A   Clear
7:15 PM 59.0 °F 53.6 °F 82% 29.95 in 10.0 mi Calm Calm - N/A   Clear
7:35 PM 57.2 °F 53.6 °F 88% 29.96 in 10.0 mi Calm Calm - N/A   Clear
7:55 PM 55.4 °F 53.6 °F 94% 29.97 in 10.0 mi Calm Calm - N/A   Clear
8:15 PM 55.4 °F 53.6 °F 94% 29.97 in 10.0 mi Calm Calm - N/A   Scattered Clouds
8:35 PM 53.6 °F 53.6 °F 100% 29.97 in 10.0 mi Calm Calm - N/A   Clear
8:55 PM 53.6 °F 53.6 °F 100% 29.97 in 7.0 mi Calm Calm - N/A   Clear
9:15 PM 53.6 °F 53.6 °F 100% 29.97 in 10.0 mi Calm Calm - N/A   Clear
9:35 PM 53.6 °F 51.8 °F 94% 29.98 in 7.0 mi Calm Calm - N/A   Clear
9:55 PM 53.6 °F 51.8 °F 94% 29.98 in 7.0 mi Calm Calm - N/A   Clear
10:15 PM 51.8 °F 51.8 °F 100% 29.97 in 3.0 mi Calm Calm - N/A   Clear
10:35 PM 51.8 °F 51.8 °F 100% 29.97 in 10.0 mi Calm Calm - N/A   Clear
10:55 PM 51.8 °F 50.0 °F 94% 29.97 in 7.0 mi Calm Calm - N/A   Clear
11:15 PM 51.8 °F 51.8 °F 100% 29.97 in 7.0 mi Calm Calm - N/A   Clear
11:35 PM 51.8 °F 50.0 °F 94% 29.96 in 10.0 mi Calm Calm - N/A   Clear
11:55 PM 51.8 °F 51.8 °F 100% 29.95 in 7.0 mi Calm Calm - N/A   Clear